Time,TemperatureF,DewpointF,PressureIn,WindDirection,WindDirectionDegrees,WindSpeedMPH,WindSpeedGustMPH,Humidity,HourlyPrecipIn,Conditions,Clouds,dailyrainin,SolarRadiationWatts/m^2,SoftwareType,DateUTC
2013-10-22 00:04:00,32.0,31.0,-100.00,NNW,336,11.0,19.0,95,0.00,,,0.03,0.000000,,2013-10-22 05:04:00,
2013-10-22 00:43:00,31.0,29.0,-100.00,NNW,336,9.0,21.0,93,0.00,,,0.03,0.000000,,2013-10-22 05:43:00,
2013-10-22 00:52:00,31.0,29.0,-100.00,NNW,336,9.0,21.0,93,0.00,,,0.03,0.000000,,2013-10-22 05:52:00,
2013-10-22 01:02:00,31.0,29.0,-100.00,NNW,336,9.0,21.0,93,0.00,,,0.03,0.000000,,2013-10-22 06:02:00,
2013-10-22 01:12:00,31.0,29.0,-100.00,NNW,336,9.0,21.0,93,0.00,,,0.03,0.000000,,2013-10-22 06:12:00,
2013-10-22 01:43:00,31.0,29.0,-100.00,NNW,337,6.0,15.0,93,0.00,,,0.03,0.000000,,2013-10-22 06:43:00,
2013-10-22 01:54:00,31.0,29.0,-100.00,NNW,337,6.0,15.0,93,0.00,,,0.03,0.000000,,2013-10-22 06:54:00,
2013-10-22 02:02:00,31.0,29.0,-100.00,NNW,337,6.0,15.0,93,0.00,,,0.03,0.000000,,2013-10-22 07:02:00,
2013-10-22 02:12:00,31.0,29.0,-100.00,NNW,337,6.0,15.0,93,0.00,,,0.03,0.000000,,2013-10-22 07:12:00,
2013-10-22 02:42:00,29.0,27.0,-100.00,NNW,332,9.0,15.0,91,0.00,,,0.03,0.000000,,2013-10-22 07:42:00,
2013-10-22 02:52:00,29.0,27.0,-100.00,NNW,332,9.0,15.0,91,0.00,,,0.03,0.000000,,2013-10-22 07:52:00,
2013-10-22 03:02:00,29.0,27.0,-100.00,NNW,332,9.0,15.0,91,0.00,,,0.03,0.000000,,2013-10-22 08:02:00,
2013-10-22 03:12:00,29.0,27.0,-100.00,NNW,332,9.0,15.0,91,0.00,,,0.03,0.000000,,2013-10-22 08:12:00,
2013-10-22 03:42:00,29.0,26.0,-100.00,NNW,342,8.0,16.0,88,0.00,,,0.02,1.000000,,2013-10-22 08:42:00,
2013-10-22 03:52:00,29.0,26.0,-100.00,NNW,342,8.0,16.0,88,0.00,,,0.02,1.000000,,2013-10-22 08:52:00,
2013-10-22 04:02:00,29.0,26.0,-100.00,NNW,342,8.0,16.0,88,0.00,,,0.02,1.000000,,2013-10-22 09:02:00,
2013-10-22 04:11:00,29.0,26.0,-100.00,NNW,342,8.0,16.0,88,0.00,,,0.02,1.000000,,2013-10-22 09:11:00,
2013-10-22 04:13:00,29.0,25.0,-100.00,NW,325,8.0,14.0,86,0.00,,,0.02,0.000000,,2013-10-22 09:13:00,
2013-10-22 04:43:00,29.0,25.0,-100.00,NW,325,8.0,14.0,86,0.00,,,0.02,0.000000,,2013-10-22 09:43:00,
2013-10-22 04:54:00,29.0,25.0,-100.00,NW,325,8.0,14.0,86,0.00,,,0.02,0.000000,,2013-10-22 09:54:00,
2013-10-22 05:03:00,29.0,25.0,-100.00,NW,325,8.0,14.0,86,0.00,,,0.02,0.000000,,2013-10-22 10:03:00,
2013-10-22 05:43:00,29.0,26.0,-100.00,North,350,6.0,14.0,88,0.00,,,0.02,0.000000,,2013-10-22 10:43:00,
2013-10-22 05:53:00,29.0,26.0,-100.00,North,350,6.0,14.0,88,0.00,,,0.02,0.000000,,2013-10-22 10:53:00,
2013-10-22 06:03:00,29.0,26.0,-100.00,North,350,6.0,14.0,88,0.00,,,0.02,0.000000,,2013-10-22 11:03:00,
2013-10-22 06:12:00,29.0,26.0,-100.00,North,350,6.0,14.0,88,0.00,,,0.02,0.000000,,2013-10-22 11:12:00,
2013-10-22 06:42:00,29.0,24.0,-100.00,NNW,340,7.0,13.0,82,0.00,,,0.02,0.000000,,2013-10-22 11:42:00,
2013-10-22 06:53:00,29.0,24.0,-100.00,NNW,340,7.0,13.0,82,0.00,,,0.02,0.000000,,2013-10-22 11:53:00,
2013-10-22 07:01:00,29.0,24.0,-100.00,NNW,340,7.0,13.0,82,0.00,,,0.02,0.000000,,2013-10-22 12:01:00,
2013-10-22 07:11:00,29.0,24.0,-100.00,NNW,340,7.0,13.0,82,0.00,,,0.02,0.000000,,2013-10-22 12:11:00,
2013-10-22 07:42:00,29.0,24.0,-100.00,NNW,336,9.0,16.0,81,0.00,,,0.02,0.000000,,2013-10-22 12:42:00,
2013-10-22 07:52:00,29.0,24.0,-100.00,NNW,336,9.0,16.0,81,0.00,,,0.02,0.000000,,2013-10-22 12:52:00,
2013-10-22 08:01:00,29.0,24.0,-100.00,NNW,336,9.0,16.0,81,0.00,,,0.02,0.000000,,2013-10-22 13:01:00,
2013-10-22 08:11:00,29.0,24.0,-100.00,NNW,336,9.0,16.0,81,0.00,,,0.02,0.000000,,2013-10-22 13:11:00,
2013-10-22 08:42:00,28.0,23.0,-100.00,North,350,7.0,17.0,80,0.00,,,0.02,4.000000,,2013-10-22 13:42:00,
2013-10-22 08:53:00,28.0,23.0,-100.00,North,350,7.0,17.0,80,0.00,,,0.02,4.000000,,2013-10-22 13:53:00,
2013-10-22 09:02:00,28.0,23.0,-100.00,North,350,7.0,17.0,80,0.00,,,0.02,4.000000,,2013-10-22 14:02:00,
2013-10-22 09:12:00,28.0,23.0,-100.00,North,350,7.0,17.0,80,0.00,,,0.02,4.000000,,2013-10-22 14:12:00,
2013-10-22 09:42:00,32.0,24.0,-100.00,North,350,6.0,14.0,73,0.00,,,0.02,118.000000,,2013-10-22 14:42:00,
2013-10-22 09:52:00,32.0,24.0,-100.00,North,350,6.0,14.0,73,0.00,,,0.02,118.000000,,2013-10-22 14:52:00,
2013-10-22 10:01:00,32.0,24.0,-100.00,North,350,6.0,14.0,73,0.00,,,0.02,118.000000,,2013-10-22 15:01:00,
2013-10-22 10:12:00,32.0,24.0,-100.00,North,350,6.0,14.0,73,0.00,,,0.02,118.000000,,2013-10-22 15:12:00,
2013-10-22 10:13:00,31.0,23.0,-100.00,NNW,338,7.0,15.0,73,0.05,,,0.07,224.000000,,2013-10-22 15:13:00,
2013-10-22 10:43:00,31.0,23.0,-100.00,NNW,338,7.0,15.0,73,0.05,,,0.07,224.000000,,2013-10-22 15:43:00,
2013-10-22 10:54:00,31.0,23.0,-100.00,NNW,338,7.0,15.0,73,0.05,,,0.07,224.000000,,2013-10-22 15:54:00,
2013-10-22 11:04:00,31.0,23.0,-100.00,NNW,338,7.0,15.0,73,0.05,,,0.07,224.000000,,2013-10-22 16:04:00,
2013-10-22 11:43:00,31.0,24.0,-100.00,NNW,339,8.0,14.0,76,0.00,,,0.07,96.000000,,2013-10-22 16:43:00,
2013-10-22 11:53:00,31.0,24.0,-100.00,NNW,339,8.0,14.0,76,0.00,,,0.07,96.000000,,2013-10-22 16:53:00,
2013-10-22 12:03:00,31.0,24.0,-100.00,NNW,339,8.0,14.0,76,0.00,,,0.07,96.000000,,2013-10-22 17:03:00,
2013-10-22 12:12:00,31.0,24.0,-100.00,NNW,339,8.0,14.0,76,0.00,,,0.07,96.000000,,2013-10-22 17:12:00,
2013-10-22 12:43:00,33.0,25.0,-100.00,North,357,6.0,13.0,71,0.01,,,0.06,199.000000,,2013-10-22 17:43:00,
2013-10-22 12:52:00,33.0,25.0,-100.00,North,357,6.0,13.0,71,0.01,,,0.06,199.000000,,2013-10-22 17:52:00,
2013-10-22 13:02:00,33.0,25.0,-100.00,North,357,6.0,13.0,71,0.01,,,0.06,199.000000,,2013-10-22 18:02:00,
2013-10-22 13:12:00,33.0,25.0,-100.00,North,357,6.0,13.0,71,0.01,,,0.06,199.000000,,2013-10-22 18:12:00,
2013-10-22 13:42:00,35.0,25.0,-100.00,NNW,338,6.0,12.0,67,0.00,,,0.06,215.000000,,2013-10-22 18:42:00,
2013-10-22 13:52:00,35.0,25.0,-100.00,NNW,338,6.0,12.0,67,0.00,,,0.06,215.000000,,2013-10-22 18:52:00,
2013-10-22 14:02:00,35.0,25.0,-100.00,NNW,338,6.0,12.0,67,0.00,,,0.06,215.000000,,2013-10-22 19:02:00,
2013-10-22 14:12:00,35.0,25.0,-100.00,NNW,338,6.0,12.0,67,0.00,,,0.06,215.000000,,2013-10-22 19:12:00,
2013-10-22 14:43:00,34.0,23.0,-100.00,NNW,331,8.0,14.0,65,0.00,,,0.06,265.000000,,2013-10-22 19:43:00,
2013-10-22 14:53:00,34.0,23.0,-100.00,NNW,331,8.0,14.0,65,0.00,,,0.06,265.000000,,2013-10-22 19:53:00,
2013-10-22 15:03:00,34.0,23.0,-100.00,NNW,331,8.0,14.0,65,0.00,,,0.06,265.000000,,2013-10-22 20:03:00,
2013-10-22 15:11:00,34.0,23.0,-100.00,NNW,331,8.0,14.0,65,0.00,,,0.06,265.000000,,2013-10-22 20:11:00,
2013-10-22 15:43:00,34.0,23.0,-100.00,NW,314,7.0,15.0,63,0.00,,,0.06,172.000000,,2013-10-22 20:43:00,
2013-10-22 15:52:00,34.0,23.0,-100.00,NW,314,7.0,15.0,63,0.00,,,0.06,172.000000,,2013-10-22 20:52:00,
2013-10-22 16:02:00,34.0,23.0,-100.00,NW,314,7.0,15.0,63,0.00,,,0.06,172.000000,,2013-10-22 21:02:00,
2013-10-22 16:12:00,34.0,23.0,-100.00,NW,314,7.0,15.0,63,0.00,,,0.06,172.000000,,2013-10-22 21:12:00,
2013-10-22 16:13:00,33.0,22.0,-100.00,NNW,331,6.0,13.0,63,0.00,,,0.06,101.000000,,2013-10-22 21:13:00,
2013-10-22 16:44:00,33.0,22.0,-100.00,NNW,331,6.0,13.0,63,0.00,,,0.06,101.000000,,2013-10-22 21:44:00,
2013-10-22 16:54:00,33.0,22.0,-100.00,NNW,331,6.0,13.0,63,0.00,,,0.06,101.000000,,2013-10-22 21:54:00,
2013-10-22 17:04:00,33.0,22.0,-100.00,NNW,331,6.0,13.0,63,0.00,,,0.06,101.000000,,2013-10-22 22:04:00,
2013-10-22 17:44:00,33.0,23.0,-100.00,NNW,327,3.0,11.0,65,0.00,,,0.06,57.000000,,2013-10-22 22:44:00,
2013-10-22 17:54:00,33.0,23.0,-100.00,NNW,327,3.0,11.0,65,0.00,,,0.06,57.000000,,2013-10-22 22:54:00,
2013-10-22 18:03:00,33.0,23.0,-100.00,NNW,327,3.0,11.0,65,0.00,,,0.06,57.000000,,2013-10-22 23:03:00,
2013-10-22 18:12:00,33.0,23.0,-100.00,NNW,327,3.0,11.0,65,0.00,,,0.06,57.000000,,2013-10-22 23:12:00,
2013-10-22 18:43:00,31.0,22.0,-100.00,WNW,296,4.0,7.0,69,0.00,,,0.06,14.000000,,2013-10-22 23:43:00,
2013-10-22 18:53:00,31.0,22.0,-100.00,WNW,296,4.0,7.0,69,0.00,,,0.06,14.000000,,2013-10-22 23:53:00,
2013-10-22 19:02:00,31.0,22.0,-100.00,WNW,296,4.0,7.0,69,0.00,,,0.06,14.000000,,2013-10-23 00:02:00,
2013-10-22 19:11:00,31.0,22.0,-100.00,WNW,296,4.0,7.0,69,0.00,,,0.06,14.000000,,2013-10-23 00:11:00,
2013-10-22 19:42:00,31.0,23.0,-100.00,WNW,294,5.0,9.0,73,0.00,,,0.06,1.000000,,2013-10-23 00:42:00,
2013-10-22 19:52:00,31.0,23.0,-100.00,WNW,294,5.0,9.0,73,0.00,,,0.06,1.000000,,2013-10-23 00:52:00,
2013-10-22 20:02:00,31.0,23.0,-100.00,WNW,294,5.0,9.0,73,0.00,,,0.06,1.000000,,2013-10-23 01:02:00,
2013-10-22 20:11:00,31.0,23.0,-100.00,WNW,294,5.0,9.0,73,0.00,,,0.06,1.000000,,2013-10-23 01:11:00,
2013-10-22 20:42:00,30.0,23.0,-100.00,WNW,288,4.0,9.0,76,0.00,,,0.06,0.000000,,2013-10-23 01:42:00,
2013-10-22 20:52:00,30.0,23.0,-100.00,WNW,288,4.0,9.0,76,0.00,,,0.06,0.000000,,2013-10-23 01:52:00,
2013-10-22 21:02:00,30.0,23.0,-100.00,WNW,288,4.0,9.0,76,0.00,,,0.06,0.000000,,2013-10-23 02:02:00,
2013-10-22 21:11:00,30.0,23.0,-100.00,WNW,288,4.0,9.0,76,0.00,,,0.06,0.000000,,2013-10-23 02:11:00,
2013-10-22 21:42:00,28.0,24.0,-100.00,West,260,3.0,8.0,85,0.00,,,-99.99,0.000000,,2013-10-23 02:42:00,
2013-10-22 21:54:00,28.0,24.0,-100.00,West,260,3.0,8.0,85,0.00,,,-99.99,0.000000,,2013-10-23 02:54:00,
2013-10-22 22:02:00,28.0,24.0,-100.00,West,260,3.0,8.0,85,0.00,,,-99.99,0.000000,,2013-10-23 03:02:00,
2013-10-22 22:12:00,28.0,24.0,-100.00,West,260,3.0,8.0,85,0.00,,,-99.99,0.000000,,2013-10-23 03:12:00,
2013-10-22 22:13:00,29.0,25.0,-100.00,West,267,4.0,6.0,84,0.00,,,0.06,1.000000,,2013-10-23 03:13:00,
2013-10-22 22:44:00,29.0,25.0,-100.00,West,267,4.0,6.0,84,0.00,,,0.06,1.000000,,2013-10-23 03:44:00,
2013-10-22 22:55:00,29.0,25.0,-100.00,West,267,4.0,6.0,84,0.00,,,0.06,1.000000,,2013-10-23 03:55:00,
2013-10-22 23:04:00,29.0,25.0,-100.00,West,267,4.0,6.0,84,0.00,,,0.06,1.000000,,2013-10-23 04:04:00,
2013-10-22 23:13:00,30.0,26.0,-100.00,West,276,5.0,10.0,85,0.00,,,0.06,0.000000,,2013-10-23 04:13:00,
2013-10-22 23:45:00,30.0,26.0,-100.00,West,276,5.0,10.0,85,0.00,,,0.06,0.000000,,2013-10-23 04:45:00,
2013-10-22 23:55:00,30.0,26.0,-100.00,West,276,5.0,10.0,85,0.00,,,0.06,0.000000,,2013-10-23 04:55:00,